Regional Weather Roundup
Issued by NWS

Home | Current Version | Previous Version | Graphics & Text | Print | Product List | Glossary On
Versions: 1 2 3 4 5 6 7 8 9 10 11 12 13 14 15 16 17 18 19 20 21 22 23 24 25 26 27 28 29 30 31 32 33 34 35 36 37 38 39 40 41 42 43 44 45 46 47 48 49 50
464
ASUS45 KBOI 300110
RWRID

IDAHO REGIONAL WEATHER ROUNDUP
NATIONAL WEATHER SERVICE BOISE ID
700 PM MDT FRI APR 29 2016

NOTE: "FAIR" INDICATES FEW OR NO CLOUDS BELOW 12000 FEET
WITH NO SIGNIFICANT WEATHER AND/OR OBSTRUCTIONS TO VISIBILITY

IDZ012-014-300200-
SOUTHWEST IDAHO


CITY           SKY/WX    TMP DP  RH WIND       PRES   REMARKS
BOISE          PTSUNNY   59  36  42 N17G25    29.86R
CALDWELL       PTSUNNY   59  40  49 NW14G25   29.89S
MOUNTAIN HOME  MOSUNNY   60  37  43 NW24G36   29.83R
$$

IDZ016-017-300200-
SOUTHCENTRAL IDAHO


CITY           SKY/WX    TMP DP  RH WIND       PRES   REMARKS
BURLEY         PTSUNNY   49  42  77 S8        29.81F
JEROME         PTSUNNY   59  34  39 W14G23    29.81R
TWIN FALLS     MOSUNNY   55  35  47 W17       29.82S
$$

IDZ019>023-300200-
SOUTHEAST IDAHO


CITY           SKY/WX    TMP DP  RH WIND       PRES   REMARKS
IDAHO FALLS    PTSUNNY   49  36  61 SW10      29.84R
POCATELLO      PTSUNNY   46  41  82 W15       29.86R
REXBURG        SUNNY     50  36  58 W7        29.83S
$$

IDZ006-010-011-018-031-032-300200-
CENTRAL IDAHO MOUNTAINS


CITY           SKY/WX    TMP DP  RH WIND       PRES   REMARKS
MCCALL         LGT RAIN  44  34  67 N13       29.91R
HAILEY         PTSUNNY   45  39  81 SE7       29.86R
STANLEY          N/A     43  31  62 NW7       29.88R
SALMON         CLOUDY    48  36  61 N7        29.86R
CHALLIS        CLOUDY    48  36  63 NE9       29.84R
$$

IDZ002-004-006-007-026-300200-
NORTHERN IDAHO


CITY           SKY/WX    TMP DP  RH WIND       PRES   REMARKS
LEWISTON       CLOUDY    51  44  77 CALM      29.99R
LOWELL           N/A     50  48  93 CALM      30.00R
COEUR D`ALENE  CLOUDY    54  37  54 CALM      29.94S
MULLAN PASS    LGT SNOW  33  31  92 NW6       29.95R FOG     WCI  28
$$




USA.gov is the U.S. government's official web portal to all federal, state and local government web resources and services.